Roswell, NM

2:20 AM MST on February 18, 2018 (GMT -0700)
Roswell Industrial

Weather History for KROW - May, 2013

Change the Weather History Date:

Wednesday, May 1, 2013

  Actual Average Record
Temperature  
Mean Temperature 67 °F 65 °F  
Max Temperature 89 °F 81 °F 97 °F (2012)
Min Temperature 44 °F 50 °F 29 °F (1909)
Degree Days  
Heating Degree Days 0 2  
Month to date heating degree days 0 2  
Since 1 July heating degree days 2933 3260  
Cooling Degree Days 2 3  
Month to date cooling degree days 2 3  
Year to date cooling degree days 68 43  
Growing Degree Days 18 (Base 50)    
Moisture  
Dew Point 24 °F    
Average Humidity 33    
Maximum Humidity 58    
Minimum Humidity 8    
Precipitation  
Precipitation 0.00 in 0.03 in 1.45 in (1999)
Month to date precipitation 0.00 0.03  
Year to date precipitation 0.44 1.95  
Sea Level Pressure  
Sea Level Pressure 29.81 in    
Wind  
Wind Speed 14 mph (NE)    
Max Wind Speed 29 mph    
Max Gust Speed 36 mph    
Visibility 9 miles    
Events      
T = Trace of Precipitation, MM = Missing Value Source: NWS Daily Summary

Daily Weather History Graph

Daily Weather History Graph

Search for Another Location

Airport or City:

Trip Planner

Search our weather history database for the weather conditions in past years. The results will help you decide how hot, cold, wet, or windy it might be!

Date:

Astronomy

May. 01, 2013 Rise Set
Actual Time 6:09 AM MDT 7:40 PM MDT
Civil Twilight 5:43 AM MDT 8:07 PM MDT
Nautical Twilight 5:11 AM MDT 8:39 PM MDT
Astronomical Twilight 4:38 AM MDT 9:12 PM MDT
Moon 12:51 AM MDT (5/1) 11:50 AM MDT (5/1)
Length of Visible Light 14h 24m
Length of Day
13h 31m
Waning Gibbous, 58% of the Moon is Illuminated
May 1
Waning Gibbous
May 2
Last Quarter
May 9
New
May 17
First Quarter
May 24
Full

Hourly Weather History & Observations

Time (MDT) Temp. Windchill Dew Point Humidity Pressure Visibility Wind Dir Wind Speed Gust Speed Precip Events Conditions
12:51 AM 72.0 °F - 7.0 °F 8% 29.50 in 10.0 mi WSW 16.1 mph - N/A   Clear
1:51 AM 72.0 °F - 8.1 °F 8% 29.51 in 10.0 mi West 12.7 mph - N/A   Clear
2:51 AM 72.0 °F - 9.0 °F 9% 29.52 in 10.0 mi NW 12.7 mph - N/A   Clear
3:51 AM 66.9 °F - 10.9 °F 11% 29.55 in 10.0 mi NNW 6.9 mph - N/A   Clear
4:51 AM 61.0 °F - 10.0 °F 13% 29.61 in 10.0 mi SSW 3.5 mph - N/A   Clear
5:51 AM 63.0 °F - 10.9 °F 13% 29.65 in 10.0 mi ESE 11.5 mph - N/A   Clear
6:51 AM 57.9 °F - 14.0 °F 18% 29.70 in 10.0 mi ESE 5.8 mph - N/A   Clear
7:51 AM 66.9 °F - 17.1 °F 15% 29.73 in 10.0 mi South 4.6 mph - N/A   Clear
8:51 AM 75.9 °F - 18.0 °F 11% 29.73 in 10.0 mi NE 4.6 mph - N/A   Clear
9:51 AM 79.0 °F - 19.9 °F 11% 29.74 in 10.0 mi NNE 3.5 mph - N/A   Clear
10:51 AM 82.0 °F - 17.1 °F 9% 29.74 in 10.0 mi NNE 5.8 mph - N/A   Clear
11:51 AM 84.9 °F - 17.1 °F 8% 29.73 in 10.0 mi NNE 10.4 mph 16.1 mph N/A   Clear
12:51 PM 87.1 °F - 21.0 °F 9% 29.71 in 10.0 mi NE 9.2 mph - N/A   Clear
1:51 PM 88.0 °F - 28.0 °F 12% 29.70 in 10.0 mi ENE 12.7 mph 21.9 mph N/A   Clear
2:51 PM 88.0 °F - 28.0 °F 12% 29.70 in 10.0 mi NE 16.1 mph 23.0 mph N/A   Clear
3:51 PM 88.0 °F - 30.0 °F 12% 29.68 in 9.0 mi ENE 19.6 mph 27.6 mph N/A   Clear
4:51 PM 84.0 °F - 33.1 °F 16% 29.72 in 7.0 mi ENE 19.6 mph - N/A   Clear
5:51 PM 79.0 °F - 37.0 °F 22% 29.76 in 7.0 mi ENE 24.2 mph 31.1 mph N/A   Clear
6:51 PM 73.0 °F - 37.9 °F 28% 29.81 in 8.0 mi NE 16.1 mph 25.3 mph N/A   Clear
7:51 PM 66.0 °F - 39.0 °F 37% 29.87 in 7.0 mi NE 20.7 mph 26.5 mph N/A   Clear
8:51 PM 60.1 °F - 39.0 °F 46% 29.96 in 8.0 mi NE 25.3 mph 33.4 mph N/A   Clear
9:42 PM 53.6 °F - 35.6 °F 51% 30.19 in 7.0 mi NNE 25.3 mph 32.2 mph N/A   Mostly Cloudy
9:51 PM 52.0 °F - 35.1 °F 53% 30.06 in 8.0 mi NNE 28.8 mph 34.5 mph N/A   Overcast
10:51 PM 48.0 °F - 34.0 °F 58% 30.14 in 6.0 mi NNE 21.9 mph 32.2 mph N/A   Haze
11:24 PM 46.4 °F 38.3 °F 33.8 °F 62% 30.30 in 7.0 mi NNE 23.0 mph 32.2 mph N/A   Overcast
11:42 PM 46.4 °F 37.9 °F 33.8 °F 62% 30.31 in 7.0 mi NNE 25.3 mph 32.2 mph N/A   Overcast
11:51 PM 46.0 °F 37.4 °F 32.0 °F 58% 30.18 in 7.0 mi NNE 25.3 mph 32.2 mph N/A   Overcast